Location: Asheville, NC
(35.6000°N, 82.5500°W)
Time: 16:19:53
(UTC-05:00)

CUTE-I - Pass Details

Date: 12 January 2018
Orbit: 810 x 826 km, 98.7° (Epoch: 18 January)

Event Time Altitude Azimuth Distance (km) Brightness Sun altitude
Rises 18:03:53 0° 165° (SSE) 3,329 ? -5.7°
Reaches altitude 10° 18:06:13 10° 166° (SSE) 2,398 ? -6.1°
Maximum altitude 18:11:32 89° 253° (WSW) 818 ? -7.1°
Drops below altitude 10° 18:16:52 10° 347° (NNW) 2,404 ? -8.1°
Sets 18:19:12 0° 347° (NNW) 3,338 ? -8.6°
